[[{"header":{"parameterUnit":"m.s-1","parameterCategory":1,"la1":30.2991,"la2":30.254,"lo1":-89.0895,"lo2":-89.0444,"dy":0.0017,"dx":0.0017,"nx":28,"ny":28,"refTime":"2024-10-13T21:00:00:Z","depth":0,"parameterNumber":2,"parameterNumberName":"U-component_of_WINDS"},"data":[0,0,0,0,0,0,0,0,0,0,0,0,0,0,0,0,0,0,0,0,0,0,0,0,0,0,0,0,0,0,0,0,0,0,0,0,0,0,0,0,0,0,0,0,0,0,0,0,0,0,0,0,0,0,0,0,0,0,2.7933,2.7935,0,2.8098,2.81,2.8102,2.8081,2.8078,2.8075,2.8073,2.8246,2.8253,2.826,0,0,0,0,0,0,0,0,0,0,0,0,0,2.7601,2.7607,2.7933,2.7935,2.7937,2.8098,2.81,2.8103,2.8081,2.8078,2.8075,2.8072,2.8243,2.8252,2.826,0,0,0,0,0,0,0,0,0,0,0,0,0,2.7753,2.7609,2.7933,2.7946,2.7949,2.8098,2.81,2.8103,2.8082,2.8078,2.8074,2.807,2.824,2.8251,2.8261,2.8409,0,0,2.8294,2.8299,0,0,0,0,0,0,0,0,2.7745,2.7766,2.7942,2.7945,2.7949,2.8065,2.8046,2.8206,2.8083,2.8031,2.8073,2.8068,2.8189,2.8204,2.8244,2.8417,2.8424,2.8295,2.8302,2.8306,2.8309,0,0,0,0,0,0,0,2.7734,2.7758,2.7998,2.7944,2.7949,2.7944,2.7961,2.8077,2.8131,2.8036,2.8034,2.8054,2.819,2.8233,2.8248,2.8427,2.8295,2.8304,2.8311,2.8315,2.8728,2.8732,0,0,0,0,0,0,2.772,2.775,2.7993,2.8003,2.7834,2.7953,2.7973,2.8032,2.813,2.8141,2.8057,2.8053,2.8217,2.8235,2.8254,2.8431,2.8306,2.8316,2.8322,2.8723,2.8729,2.8734,0,0,0,0,0,0,2.7713,2.7742,2.7987,2.7876,2.7907,2.7963,2.803,2.8037,2.808,2.8146,2.8156,2.8092,2.8215,2.8239,2.837,2.8437,2.8321,2.8331,2.8718,2.8725,2.8731,2.8789,0,0,0,0,0,0,2.7703,2.7739,2.7796,2.7878,2.7913,2.81,2.8034,2.8043,2.8098,2.8094,2.8181,2.8192,2.8213,2.8354,2.838,2.845,2.8339,2.8712,2.8721,2.8729,2.8781,2.8797,2.881,0,0,0,0,0,2.7692,2.7807,2.7799,2.7828,2.7985,2.8104,2.8124,2.8146,2.8104,2.8161,2.8203,2.8189,2.8425,2.8368,2.8397,2.8471,2.8708,2.8718,2.8728,2.8775,2.8794,2.881,0,0,0,0,0,0,2.7733,2.7818,2.781,2.7955,2.8022,2.81,2.8173,2.8165,2.8247,2.8239,2.8263,2.8283,2.8416,2.8457,2.839,2.8618,2.8561,2.8578,2.8586,2.8605,2.8619,2.8606,2.8348,0,0,0,0,0,2.7758,2.7847,2.7917,2.8038,2.8072,2.8116,2.8169,2.818,2.8251,2.828,2.8331,2.8402,2.8491,2.8551,2.8637,2.8787,2.8805,2.8852,2.8867,2.8878,2.8892,2.8973,2.8994,2.8767,2.8767,2.8767,0,0,2.7813,2.787,2.7925,2.8048,2.8101,2.8192,2.8141,2.824,2.8309,2.8295,2.8421,2.8462,2.8542,2.8682,2.8747,2.8721,2.8959,2.8891,2.89,2.8908,2.8986,2.9007,2.9026,2.8774,2.8773,2.8772,0,0,2.7959,2.8011,2.8117,2.8171,2.8252,2.828,2.8305,2.8384,2.841,2.8537,2.8528,2.861,2.8765,2.8822,2.8871,2.9036,2.9026,2.9064,2.914,2.9218,2.9236,2.9252,2.931,2.9331,2.9078,2.9078,2.9078,0,2.8017,2.8153,2.8173,2.8273,2.8327,2.8317,2.8424,2.8476,2.8581,2.8619,2.8587,2.878,2.8833,2.8986,2.9026,2.9067,2.9096,2.9054,2.9232,2.9248,2.9263,2.9319,2.9341,2.9082,2.9082,2.9081,2.9081,0,2.822,2.8315,2.8391,2.8491,2.8553,2.8657,2.8692,2.8753,2.8757,2.8789,2.8918,2.8981,2.908,2.9117,2.9124,2.9271,2.9252,2.9226,2.9169,2.9289,2.9341,2.9363,2.9088,2.9086,2.9085,2.9084,0,0,2.8398,2.8505,2.8533,2.8577,2.8665,2.8739,2.8841,2.8936,2.8987,2.906,2.9146,2.9277,2.9252,2.9308,2.9321,2.939,2.9515,2.9356,2.9358,2.9382,2.968,2.9699,2.9723,2.9509,2.9513,2.9516,2.9673,0,2.8551,2.8731,2.8751,2.8912,2.8999,2.899,2.9079,2.9143,2.9175,2.9254,2.929,2.9381,2.9343,2.9377,2.9444,2.9486,2.9575,2.9475,2.9589,2.9593,2.9569,2.9751,2.9771,2.9916,2.9694,2.9698,2.97,0,2.8755,2.8831,2.9,2.9074,2.9111,2.9191,2.9278,2.9354,2.9426,2.9444,2.9505,2.9509,2.9614,2.9553,2.9699,2.963,2.9678,2.9705,2.9712,2.9723,2.9654,2.9766,2.9963,2.9985,2.9733,2.973,2.9728,0,2.8866,2.9012,2.9131,2.917,2.9259,2.9314,2.9354,2.9422,2.9477,2.9553,2.9589,2.9678,2.9727,2.9795,2.9822,2.9775,2.9966,2.9908,2.9985,2.9984,3.0025,3.0022,3.0232,3.0057,3.0057,3.0056,3.0056,0,2.9036,2.9139,2.9182,2.9255,2.9371,2.9392,2.9506,2.9544,2.9603,2.9684,2.9682,2.9758,2.9789,2.987,2.9892,3.0009,3.0031,3.0049,3.0054,3.0049,3.0047,3.0081,3.0071,3.0062,3.0061,3.006,3.0059,0,2.918,2.9212,2.9342,2.9415,2.9435,2.9517,2.958,2.9651,2.9681,2.9783,2.9808,2.9857,2.9952,2.9985,3.0101,3.0116,3.0251,3.0247,3.0226,3.0227,3.0302,3.0294,3.0541,3.0574,3.0377,3.0379,3.0381,0,2.9285,2.9365,2.9445,2.9498,2.9539,2.9626,2.9681,2.9705,2.9763,2.9849,2.9909,3.0003,3.008,3.0232,3.0278,3.0366,3.0364,3.0445,3.0378,3.037,3.0365,3.0359,3.0367,3.0457,3.0459,3.0461,3.0462,0,2.9469,2.9481,2.956,2.9646,2.9711,2.978,2.9846,2.989,2.9924,2.9989,3.0085,3.0144,3.0261,3.0354,3.0444,3.0486,3.048,3.0483,3.0505,3.0501,3.0485,3.0494,3.026,3.0477,3.0476,3.0474,3.0474,3.0473,2.9597,2.9666,2.9733,2.9821,2.9873,2.9935,3.0004,3.0042,3.0123,3.0219,3.0228,3.0331,3.04,3.0519,3.0565,3.0646,3.0624,3.0657,3.0665,3.0673,3.0678,3.0472,3.0663,3.0663,3.0662,3.0662,3.0662,0,2.978,2.9822,2.9903,2.9995,3.0064,3.005,3.0123,3.0182,3.0272,3.0336,3.041,3.052,3.061,3.0662,3.0752,3.0807,3.0806,3.083,3.0826,3.0835,3.0693,3.0664,3.0828,3.0828,3.0828,3.0828,3.0828,3.0828,2.9884,2.9999,3.0019,3.016,3.0201,3.0301,3.0344,3.04,3.0451,3.0573,3.0647,3.0679,3.0738,3.0832,3.0914,3.0927,3.096,3.0985,3.0996,3.0862,3.0845,3.0829,3.0802,3.0992,3.0993,3.1132,3.1133,3.1134]},{"header":{"parameterUnit":"m.s-1","parameterCategory":1,"la1":30.2991,"la2":30.254,"lo1":-89.0895,"lo2":-89.0444,"dy":0.0017,"dx":0.0017,"nx":28,"ny":28,"refTime":"2024-10-13T21:00:00:Z","depth":0,"parameterNumber":3,"parameterNumberName":"V-component_of_WINDS"},"data":[0,0,0,0,0,0,0,0,0,0,0,0,0,0,0,0,0,0,0,0,0,0,0,0,0,0,0,0,0,0,0,0,0,0,0,0,0,0,0,0,0,0,0,0,0,0,0,0,0,0,0,0,0,0,0,0,0,0,3.8334,3.8335,0,3.8395,3.8396,3.8397,3.8334,3.8331,3.8329,3.8327,3.8384,3.8388,3.8392,0,0,0,0,0,0,0,0,0,0,0,0,0,3.8158,3.8162,3.8334,3.8335,3.8336,3.8395,3.8396,3.8397,3.8334,3.8331,3.8328,3.8326,3.8383,3.8388,3.8392,0,0,0,0,0,0,0,0,0,0,0,0,0,3.8228,3.8163,3.8334,3.8312,3.8311,3.8395,3.8396,3.8397,3.8335,3.8331,3.8328,3.8324,3.8382,3.8387,3.8393,3.8501,0,0,3.841,3.8413,0,0,0,0,0,0,0,0,3.8225,3.8235,3.8314,3.8314,3.8312,3.8353,3.8355,3.8432,3.8336,3.8326,3.8327,3.8322,3.8377,3.8383,3.8402,3.8503,3.8506,3.8411,3.8414,3.8417,3.8418,0,0,0,0,0,0,0,3.822,3.8232,3.8358,3.8316,3.8314,3.8297,3.8303,3.8369,3.8371,3.8326,3.8322,3.833,3.8375,3.8397,3.8403,3.8507,3.8411,3.8416,3.8419,3.8421,3.8697,3.8701,0,0,0,0,0,0,3.8218,3.8228,3.8356,3.836,3.8259,3.8303,3.831,3.8344,3.837,3.837,3.8333,3.8327,3.8389,3.8396,3.8405,3.8531,3.8417,3.8422,3.8425,3.8693,3.8698,3.8702,0,0,0,0,0,0,3.8215,3.823,3.8354,3.8293,3.8308,3.831,3.8349,3.8347,3.8368,3.8375,3.8374,3.8355,3.8386,3.8397,3.8477,3.8532,3.8425,3.843,3.8689,3.8695,3.87,3.8786,0,0,0,0,0,0,3.821,3.8229,3.8272,3.8295,3.8311,3.8427,3.8352,3.8351,3.8378,3.8371,3.8395,3.8396,3.8384,3.8469,3.8483,3.8538,3.8434,3.8684,3.8691,3.8698,3.8778,3.8794,3.8808,0,0,0,0,0,3.8204,3.8293,3.8274,3.829,3.8365,3.8431,3.844,3.8426,3.8383,3.8425,3.8429,3.8395,3.8524,3.8478,3.8493,3.8551,3.868,3.8689,3.8698,3.8772,3.8791,3.8807,0,0,0,0,0,0,3.8275,3.8296,3.8275,3.8375,3.8402,3.842,3.8472,3.8447,3.8485,3.8477,3.8456,3.8462,3.8547,3.8557,3.8505,3.8655,3.8595,3.8607,3.8646,3.8664,3.8679,3.8674,3.8439,0,0,0,0,0,3.8303,3.8357,3.8371,3.8457,3.8472,3.847,3.8498,3.8485,3.8511,3.8522,3.8532,3.8558,3.8604,3.8635,3.8677,3.8779,3.8782,3.8826,3.8841,3.8853,3.8863,3.8916,3.8935,3.8731,3.8731,3.8731,0,0,3.836,3.8378,3.8413,3.8472,3.8491,3.8545,3.848,3.854,3.858,3.8531,3.8608,3.8616,3.8643,3.8734,3.8775,3.8745,3.892,3.8864,3.8874,3.8878,3.8927,3.8946,3.8963,3.8737,3.8736,3.8735,0,0,3.8491,3.8511,3.8585,3.8605,3.8636,3.8634,3.8651,3.8674,3.8678,3.8755,3.8718,3.8764,3.8844,3.8865,3.8885,3.9023,3.8993,3.9038,3.9114,3.9166,3.9182,3.9196,3.9243,3.9261,3.9048,3.9048,3.9049,0,3.8558,3.864,3.8625,3.8688,3.8714,3.8674,3.8746,3.8767,3.8809,3.8827,3.8793,3.8892,3.8908,3.9002,3.9036,3.9054,3.9072,3.9035,3.9181,3.9195,3.9208,3.9253,3.9271,3.9054,3.9053,3.9053,3.9052,0,3.872,3.8777,3.8832,3.8875,3.8908,3.8975,3.8968,3.9003,3.8986,3.8987,3.9065,3.9082,3.9127,3.9148,3.9133,3.924,3.922,3.9184,3.9123,3.9233,3.9274,3.9292,3.9061,3.9059,3.9058,3.9056,0,0,3.8898,3.8932,3.8952,3.8971,3.9001,3.9044,3.9108,3.9153,3.9182,3.9212,3.9265,3.9333,3.93,3.9323,3.9309,3.9355,3.9461,3.9312,3.9313,3.9338,3.9578,3.9604,3.9625,3.9441,3.9444,3.9447,3.9575,0,3.903,3.9144,3.9131,3.9239,3.9291,3.9252,3.9308,3.9331,3.9334,3.9376,3.9377,3.9426,3.9379,3.9392,3.9436,3.9439,3.9508,3.9429,3.9487,3.949,3.9481,3.9647,3.9675,3.9796,3.9592,3.9595,3.9597,0,3.9198,3.9235,3.9349,3.937,3.9391,3.9442,3.9481,3.9523,3.9548,3.9546,3.9572,3.955,3.9612,3.9551,3.9635,3.9582,3.9605,3.961,3.9614,3.9618,3.9549,3.9654,3.9834,3.9852,3.9623,3.962,3.9619,0,3.9315,3.9394,3.9471,3.9488,3.9515,3.9551,3.9564,3.9585,3.9612,3.9646,3.9663,3.9704,3.9725,3.9756,3.9745,3.9701,3.9831,3.9769,3.983,3.983,3.9858,3.9856,4.0043,3.9875,3.9875,3.9875,3.9874,0,3.9463,3.9533,3.9524,3.9572,3.9649,3.9633,3.9709,3.9716,3.9735,3.9782,3.9751,3.9795,3.9777,3.982,3.9811,3.9882,3.9892,3.9891,3.9887,3.9893,3.9893,3.9907,3.9898,3.9879,3.9878,3.9877,3.9876,0,3.9606,3.9603,3.9685,3.9704,3.971,3.9766,3.978,3.9824,3.9824,3.9883,3.9896,3.9895,3.9943,3.9935,3.9988,3.9982,4.0069,4.0056,4.0062,4.0058,4.0119,4.0113,4.032,4.0346,4.0162,4.0164,4.0166,0,3.97,3.9754,3.9778,3.9808,3.9823,3.9871,3.9899,3.9885,3.9915,3.9946,3.9986,4.0031,4.0067,4.0146,4.0148,4.0188,4.0175,4.0245,4.0181,4.0184,4.0174,4.0171,4.0175,4.0257,4.0259,4.0261,4.0262,0,3.9866,3.9862,3.9904,3.9946,3.998,4.0012,4.0041,4.0066,4.0054,4.0089,4.0138,4.0166,4.0221,4.0266,4.0303,4.0313,4.0285,4.0283,4.0299,4.0305,4.0305,4.0304,4.0095,4.0278,4.0276,4.0275,4.0274,4.0274,3.9987,4.0032,4.0056,4.0104,4.0124,4.0151,4.0192,4.0197,4.0239,4.0283,4.0271,4.0327,4.0348,4.0395,4.041,4.0452,4.0426,4.0449,4.0455,4.0461,4.0467,4.0299,4.0459,4.0458,4.0458,4.0457,4.0457,0,4.015,4.0164,4.0208,4.0249,4.0286,4.0258,4.0287,4.032,4.037,4.0393,4.0428,4.0484,4.0528,4.0534,4.0574,4.0606,4.0595,4.0617,4.0614,4.0617,4.0489,4.0471,4.0626,4.0626,4.0626,4.0626,4.0626,4.0626,4.0239,4.0314,4.0312,4.0395,4.0407,4.0463,4.0482,4.0506,4.0524,4.0588,4.0625,4.0629,4.0644,4.0685,4.0723,4.0723,4.0739,4.0767,4.0762,4.0643,4.0626,4.061,4.0592,4.0771,4.0771,4.0886,4.0887,4.0888]}]]